SCP
0 0 0 0 0 0 0 -0 0 -0 0 0 0 0 0 0 0 0 0 0 0 0 0 0 0 0 0 0 0 0 0 0 0 0 0 0 0 0 0 0 0 0 0 0
0 0 0 0 0 0 0 0 0 -0 0 0 0 0 0 0 0 0 0 0 0 0 0 0 0 0 0 0 0 0 0 0 0 0 0 0 0 -0 0 0 0 0 0 0
0 0 0 0 0 0 0 0 0 0 0 0 0 0 0 0 0 0 0 0 0 0 0 0 0 0 0 0 0 0 0 0 0 0 0 0 0 0 0 0 0 0 0 0
0 0 0 0 0 0 0 0 0 0 0 0 0 0 0 0 0 0 0 0 0 0 0 0 0 0 0 0 0 -0 0 0 0 0 0 0 0 0 0 0 0 0 -0 0
0 0 0 0 0 0 0 0 0 0 0 0 0 0 0 0 0 0 0 0 0 0 0 0 -0 0 -0 -0 0 0 0 0 0 0 0 0 0 0 0 0 0 0 0 0
0 0 0 0 0 0 0 0 0 0 0 0 0 0 0 0 0 0 0 0 0 0 0 0 0 0 0 0 0 0 0 0 0 0 0 0 0 0 0 0 0 0 0 0
0 0 0 0 0 0 0 0 0 0 0 0 0 0 0 0 0 0 0 0 0 0 0 0 0 0 0 0 0 0 0 0 0 0 0 0 0 0 0 0 0 0 0 0
0 0 0 0 0 0 0 0 0 0 0 0 0 0 0 0 0 0 0 0 0 0 0 0 0 0 0 0 0 0 0 0 0 0 0 -0 0 0 0 0 0 0 0 0
0 0 0 0 0 0 0 0 0 0 0 0 0 -0 0 0 0 -0 0 0 0 0 0 0 0 0 0 0 0 -0 -0 0 0 0 0 0 0 0 0 0 0 0 0 0
0 0 0 0 0 0 0 0 0 0 0 0 0 0 0 0 0 0 -0 -0 0 0 0 0 0 0 0 0 0 0 0 0 0 0 0 0 0 0 0 0 0 0 0 0
0 0 0 0 0 0 0 0 0 0 0 0 0 0 -0 0 0 0 0 -0 0 0 0 0 0 0 0 0 0 0 0 0 0 0 0 0 -0 -0 0 0 0 0 0 0
0 0 0 0 0 0 0 0 0 0 0 0 0 0 0 0 0 -0 0 0 0 0 0 0 0 0 0 0 0 0 0 0 0 0 0 0 0 0 0 0 0 0 0 0
0 0 0 0 0 0 0 0 0 0 0 0 0 0 0 0 0 0 0 0 0 0 0 0 0 0 0 0 0 0 0 0 0 0 0 0 -0 0 0 0 0 0 0 0
0 0 0 0 0 0 0 0 0 0 0 0 0 0 0 0 -0 -0 -0 0 0 0 0 0 0 0 0 0 0 0 0 0 0 0 0 0 0 0 0 0 0 0 0 0
0 0 0 0 0 0 0 0 0 0 0 0 -0 -0 -0 0 0 0 0 0 0 0 0 0 0 0 0 0 0 0 0 0 0 0 0 0 0 0 0 0 0 0 0 0
0 0 0 0 0 0 0 0 0 0 0 0 -0 0 -0 0 0 0 0 0 0 0 0 0 0 0 0 0 0 0 0 0 0 -0 0 0 0 0 0 0 0 0 0 0
0 0 0 0 0 0 0 0 0 0 0 -0 -0 0 0 -0 0 0 0 0 0 0 0 0 0 0 0 0 0 -0 -0 -0 -0 -0 -0 -0 -0 -0 0 -0 0 -0 0 0
0 0 0 0 0 0 0 0 -0 0 -0 -0 -0 0 0 0 0 0 0 0 0 0 0 0 0 0 0 0 0 -0 -0 -0 0 -0 0 -0 0 0 -0 -0 0 0 -0 0
0 0 0 0 0 0 0 0 0 0 0 0 0 0 0 -0 0 0 0 0 0 0 0 0 0 0 0 0 0 0 0 -0 -0 -0 0 -0 0 -0 -0 0 0 0 0 0
0 0 0 0 0 0 0 0 -0 0 -0 0 0 0 0 0 0 0 0 0 0 0 0 0 0 0 0 0 0 0 0 -0 -0 0 0 -0 -0 -0 -0 -0 -0 -0 0 0
0 0 0 0 0 0 0 -0 0 0 0 0 0 0 0 0 0 0 0 0 0 0 0 0 0 0 0 0 0 0 0 0 0 0 -0 -0 -0 -0 -0 -0 -0 -0 -0 -0
0 0 0 0 0 0 0 -0 0 0 0 0 0 0 0 0 0 0 0 0 0 0 0 0 0 0 0 0 0 0 0 0 0 0 0 0 -0 -0 -0 -0 -0 -0 -0 -0
0 0 -0 0 0 -0 0 -0 0 0 -0 -0 -0 -0 -0 0 0 0 0 0 0 0 0 0 0 0 0 0 0 0 0 0 0 0 0 0 0 0 0 0 0 0 0 0
0 0 0 -0 -0 0 -0 0 0 0 -0 0 -0 -0 0 0 0 0 0 0 0 0 0 0 0 0 0 0 0 0 0 0 0 0 0 0 0 0 0 0 0 0 0 0
0 -0 -0 -0 0 0 0 -0 -0 -0 0 -0 -0 -0 0 0 0 0 0 0 0 0 0 0 0 0 0 0 0 0 0 0 0 0 0 0 0 0 0 -0 0 0 0 0
0 -0 0 0 0 0 0 -0 -0 0 -0 -0 0 0 0 0 0 0 0 0 0 0 0 0 0 0 0 0 -0 0 0 0 0 0 0 0 0 0 0 -0 -0 -0 -0 0
-0 0 0 0 0 0 0 -0 -0 -0 -0 0 0 0 -0 0 0 0 0 0 0 0 0 0 0 0 0 0 -0 -0 -0 -0 0 0 0 0 0 0 0 0 0 -0 -0 0
Wind_Speed_500mb
58 59 61 63 68 73 61 26 10 47 53 17 18 13 19 26 32 34 19 19 21 22 28 10 16 17 28 65 56 26 30 9 8 19 41 31 24 7 16 8 15 9 15 22
55 57 57 57 53 59 67 42 14 39 49 9 11 22 25 30 24 25 23 20 18 19 16 13 26 27 45 59 36 24 23 11 11 19 12 14 8 8 14 7 15 18 7 13
51 55 57 55 47 41 45 19 9 24 20 32 11 12 14 14 32 19 26 17 18 14 14 18 20 29 26 54 46 34 30 9 11 13 28 30 30 36 18 7 6 8 18 21
49 50 53 51 47 27 32 24 12 16 9 18 26 16 16 14 14 21 22 12 18 16 12 17 18 28 27 34 28 15 6 9 21 33 40 38 39 40 26 20 10 12 26 27
48 48 49 48 47 34 22 16 16 27 46 31 25 16 11 15 16 15 13 8 17 12 12 15 16 19 15 11 17 20 9 13 23 39 37 36 44 39 31 24 24 27 16 33
46 46 43 42 41 37 14 21 30 28 20 25 19 13 18 20 20 18 30 24 14 20 22 22 27 33 39 29 17 20 20 18 21 37 32 34 27 28 24 24 15 21 20 27
43 43 40 37 33 26 18 17 28 20 10 18 21 36 41 22 32 24 33 35 24 25 34 31 35 42 41 35 35 32 27 23 17 25 19 30 22 20 33 33 28 27 32 26
42 42 39 34 32 25 21 6 26 10 10 23 39 27 37 44 40 29 31 31 28 42 25 9 14 18 23 22 31 26 22 21 9 18 25 29 38 28 25 21 36 17 26 33
41 40 40 35 28 26 28 16 15 24 15 11 26 45 40 20 14 18 28 45 47 38 11 5 8 7 9 9 13 20 17 18 13 11 11 14 10 29 57 35 39 31 23 13
44 40 38 35 28 22 28 32 10 28 27 51 51 25 23 36 34 16 39 28 23 32 4 6 12 16 17 11 15 17 11 10 18 14 8 12 26 32 33 15 13 16 22 25
46 42 39 34 30 25 29 38 27 31 32 63 72 72 56 42 39 18 34 29 9 7 5 5 7 6 8 8 12 10 6 12 6 7 6 20 16 21 11 7 15 22 20 26
45 44 39 32 27 29 31 43 31 26 43 58 75 70 70 84 80 67 61 35 41 10 3 5 3 5 3 11 29 16 15 19 9 10 11 37 64 42 25 22 34 30 28 39
45 43 37 31 26 30 33 42 39 38 46 59 45 41 35 46 60 59 61 68 60 58 60 14 8 15 6 13 17 28 21 34 14 18 21 16 39 56 54 48 50 45 42 37
38 40 37 30 26 32 36 40 40 36 29 20 31 33 38 42 54 63 68 78 69 64 46 15 8 7 15 7 14 21 21 17 28 30 43 38 58 59 62 67 53 39 36 35
36 38 34 28 30 35 40 44 42 35 37 17 52 79 53 22 40 46 42 56 65 54 14 9 8 10 12 9 11 30 28 35 20 26 49 35 56 61 65 60 47 46 52 48
36 38 33 27 32 36 31 15 7 22 5 13 10 32 58 11 21 35 26 27 43 25 14 11 14 26 11 7 11 32 35 43 59 57 71 75 86 79 67 62 61 48 34 45
33 41 34 32 32 31 25 16 10 4 25 13 17 16 21 40 25 17 18 23 30 30 11 12 11 23 18 6 21 61 57 59 60 64 56 62 83 50 46 51 58 51 35 44
32 36 34 34 32 38 43 36 25 22 26 12 7 10 17 18 6 8 8 19 14 16 10 7 9 11 15 10 18 34 47 51 49 29 29 50 64 51 62 49 52 56 54 57
30 31 38 33 20 14 10 15 14 15 19 7 11 6 8 22 20 19 15 6 3 9 6 8 7 6 9 10 34 50 56 39 45 48 38 46 53 38 45 29 25 37 37 50
25 31 7 8 7 3 19 8 5 13 15 15 11 14 12 30 23 8 10 7 4 5 9 6 6 7 19 35 49 60 62 51 53 43 32 24 16 11 8 9 22 16 23 19
10 6 5 7 9 6 5 7 10 14 9 15 19 24 15 13 5 4 6 5 6 6 2 4 5 5 10 62 68 59 46 31 38 27 29 21 15 14 15 21 17 20 23 17
9 16 15 8 5 3 4 6 8 8 7 16 10 15 17 5 3 4 6 5 6 7 2 4 5 8 64 77 74 33 44 40 34 7 8 16 13 18 27 26 24 30 25 14
9 8 6 7 7 5 9 9 8 6 7 11 9 5 8 4 2 4 3 5 9 23 4 6 5 42 70 72 47 51 46 46 47 41 25 1 6 9 5 8 9 8 13 26
8 7 6 8 10 11 10 11 9 17 10 19 16 3 4 2 2 3 6 6 5 6 9 8 9 59 68 43 45 46 50 52 54 58 58 56 55 57 51 50 48 54 60 57
9 9 7 13 27 27 31 36 20 18 23 19 6 5 3 3 4 3 6 7 6 7 6 5 43 66 51 45 40 43 46 49 52 52 56 55 51 50 49 45 41 42 47 46
9 13 11 26 21 16 36 13 18 23 26 13 6 3 1 3 3 3 7 10 8 7 6 40 49 46 42 44 43 43 43 39 43 46 47 46 47 43 39 35 38 41 36 31
9 12 27 39 39 32 26 9 12 19 12 4 4 6 6 6 3 3 3 4 4 27 39 34 29 30 27 29 38 45 46 48 39 34 33 39 39 37 39 42 35 28 27 31
Wind_Direction_500mb
354 359 0 1 355 358 6 8 337 354 337 37 3 27 3 330 30 36 13 25 10 12 334 316 326 322 1 22 10 4 7 280 272 266 293 303 305 286 349 215 255 204 194 249
353 355 0 3 5 356 351 342 299 357 26 43 5 355 342 0 23 20 22 8 12 352 345 336 355 348 335 6 8 19 354 332 329 330 331 326 298 49 28 123 12 297 177 257
351 353 357 0 9 5 3 341 329 352 355 18 13 341 325 321 29 22 12 359 344 352 352 344 322 332 351 347 344 7 4 314 328 304 316 322 312 317 345 122 143 294 271 315
348 351 353 358 4 14 12 8 14 19 321 331 315 299 296 348 0 9 358 348 344 359 339 319 320 329 331 329 327 1 76 287 317 324 323 318 306 305 315 300 251 166 274 293
344 347 350 354 359 15 44 25 352 326 302 316 294 296 31 1 346 341 307 304 333 323 296 281 312 326 324 312 314 309 283 262 301 301 310 308 306 304 283 283 293 297 231 269
338 342 346 349 356 10 28 6 348 324 295 305 314 2 352 324 302 297 339 338 318 294 287 328 329 315 297 280 261 265 272 268 275 276 291 306 303 281 301 297 290 302 281 276
332 334 338 343 346 358 351 339 341 324 289 322 309 327 307 342 335 310 299 287 269 343 344 325 306 287 281 280 276 261 264 257 261 268 274 268 259 267 282 286 284 285 292 298
325 327 330 333 333 336 331 13 329 294 280 299 297 332 335 315 292 294 320 330 2 342 331 314 304 300 285 263 267 258 235 251 250 251 256 272 272 268 281 290 286 304 316 315
319 320 321 323 324 333 316 314 274 307 300 254 271 315 298 296 331 315 311 319 325 334 320 309 258 243 294 275 300 313 300 220 248 258 254 255 253 250 251 265 273 280 292 327
313 314 313 314 313 313 311 305 305 294 274 277 276 273 295 304 297 279 292 306 327 310 227 246 261 259 256 260 262 296 295 303 220 234 239 261 253 267 299 261 256 326 350 330
309 308 308 308 308 302 299 293 285 284 287 281 279 272 277 278 274 278 291 326 288 252 230 226 235 241 233 260 263 304 317 312 265 262 224 263 243 241 206 173 295 337 334 304
306 305 305 300 304 308 299 290 302 279 281 270 276 271 260 271 269 268 272 250 271 278 279 266 305 281 310 275 280 270 249 215 235 265 245 307 305 300 262 232 258 253 250 281
307 307 302 293 294 301 296 290 295 290 287 294 280 273 286 276 265 267 253 258 258 260 258 246 236 247 203 243 245 260 245 246 243 257 252 256 287 288 291 286 255 256 256 257
318 314 305 296 291 298 296 288 289 275 282 280 293 299 285 274 262 261 256 265 269 262 266 241 233 248 215 233 257 255 249 270 251 257 263 269 264 262 268 270 269 268 232 237
313 312 306 303 299 301 297 292 291 271 252 283 294 300 313 311 278 269 270 260 256 255 229 212 231 235 254 223 241 254 241 247 245 254 259 256 264 263 267 273 272 263 244 237
304 307 299 293 302 303 312 322 185 106 247 277 303 292 304 298 314 274 280 261 257 217 196 221 224 237 238 242 258 266 257 255 246 248 260 259 268 263 263 264 267 260 238 255
302 309 301 297 296 286 265 241 230 38 338 313 301 289 285 301 296 266 251 266 266 245 223 224 237 254 235 231 256 275 292 283 277 270 262 253 255 256 265 251 242 241 254 238
296 302 297 296 288 279 281 291 281 262 271 254 263 277 280 300 332 339 294 271 251 215 224 259 245 263 207 253 270 318 312 311 308 298 313 302 276 287 261 244 242 252 260 241
305 297 300 295 263 248 276 312 270 243 226 238 237 261 293 329 0 332 303 334 233 219 225 231 218 230 234 298 311 296 293 287 283 289 285 287 283 279 249 231 253 267 271 243
301 302 280 246 218 252 287 301 212 207 219 228 255 261 266 291 306 283 298 292 262 258 226 234 231 252 276 277 299 290 285 283 284 268 259 288 327 228 117 211 238 256 246 258
286 255 257 327 325 317 236 251 204 198 233 219 239 233 252 278 253 280 295 314 274 276 38 285 279 279 292 321 326 352 10 331 294 276 255 256 264 281 296 294 276 270 282 252
249 298 315 297 226 266 295 244 239 222 257 190 230 236 222 244 271 314 301 280 306 273 1 274 276 331 327 333 345 343 21 25 33 353 289 213 222 277 301 301 279 274 239 234
247 242 247 206 183 235 224 220 199 239 231 278 21 31 8 49 345 269 279 272 241 322 274 313 348 321 332 343 10 28 36 45 55 53 40 40 72 56 32 71 103 108 155 182
230 229 225 226 193 232 218 257 317 257 16 3 11 104 93 238 248 275 264 268 309 326 340 349 337 325 339 8 25 38 40 55 61 64 76 86 85 89 94 96 103 108 107 107
238 220 233 233 240 268 316 305 272 21 2 357 355 27 155 192 266 241 288 316 353 22 333 307 317 333 346 16 36 48 56 63 71 74 76 83 86 79 89 88 87 103 104 107
240 231 252 274 278 280 254 327 37 17 3 6 8 268 52 253 237 355 25 330 1 322 296 311 334 351 18 40 49 54 63 68 72 82 83 80 75 76 81 89 89 97 99 104
239 248 251 254 271 290 305 57 29 2 21 41 348 340 2 291 7 60 43 344 278 300 329 348 347 0 23 31 57 66 64 65 70 73 80 75 72 73 76 78 95 99 91 97
Wind_Speed_850mb
58 59 61 63 68 73 61 26 10 47 53 17 18 13 19 26 32 34 19 19 21 22 28 10 16 17 28 65 56 26 30 9 8 19 41 31 24 7 16 8 15 9 15 22
55 57 57 57 53 59 67 42 14 39 49 9 11 22 25 30 24 25 23 20 18 19 16 13 26 27 45 59 36 24 23 11 11 19 12 14 8 8 14 7 15 18 7 13
51 55 57 55 47 41 45 19 9 24 20 32 11 12 14 14 32 19 26 17 18 14 14 18 20 29 26 54 46 34 30 9 11 13 28 30 30 36 18 7 6 8 18 21
49 50 53 51 47 27 32 24 12 16 9 18 26 16 16 14 14 21 22 12 18 16 12 17 18 28 27 34 28 15 6 9 21 33 40 38 39 40 26 20 10 12 26 27
48 48 49 48 47 34 22 16 16 27 46 31 25 16 11 15 16 15 13 8 17 12 12 15 16 19 15 11 17 20 9 13 23 39 37 36 44 39 31 24 24 27 16 33
46 46 43 42 41 37 14 21 30 28 20 25 19 13 18 20 20 18 30 24 14 20 22 22 27 33 39 29 17 20 20 18 21 37 32 34 27 28 24 24 15 21 20 27
43 43 40 37 33 26 18 17 28 20 10 18 21 36 41 22 32 24 33 35 24 25 34 31 35 42 41 35 35 32 27 23 17 25 19 30 22 20 33 33 28 27 32 26
42 42 39 34 32 25 21 6 26 10 10 23 39 27 37 44 40 29 31 31 28 42 25 9 14 18 23 22 31 26 22 21 9 18 25 29 38 28 25 21 36 17 26 33
41 40 40 35 28 26 28 16 15 24 15 11 26 45 40 20 14 18 28 45 47 38 11 5 8 7 9 9 13 20 17 18 13 11 11 14 10 29 57 35 39 31 23 13
44 40 38 35 28 22 28 32 10 28 27 51 51 25 23 36 34 16 39 28 23 32 4 6 12 16 17 11 15 17 11 10 18 14 8 12 26 32 33 15 13 16 22 25
46 42 39 34 30 25 29 38 27 31 32 63 72 72 56 42 39 18 34 29 9 7 5 5 7 6 8 8 12 10 6 12 6 7 6 20 16 21 11 7 15 22 20 26
45 44 39 32 27 29 31 43 31 26 43 58 75 70 70 84 80 67 61 35 41 10 3 5 3 5 3 11 29 16 15 19 9 10 11 37 64 42 25 22 34 30 28 39
45 43 37 31 26 30 33 42 39 38 46 59 45 41 35 46 60 59 61 68 60 58 60 14 8 15 6 13 17 28 21 34 14 18 21 16 39 56 54 48 50 45 42 37
38 40 37 30 26 32 36 40 40 36 29 20 31 33 38 42 54 63 68 78 69 64 46 15 8 7 15 7 14 21 21 17 28 30 43 38 58 59 62 67 53 39 36 35
36 38 34 28 30 35 40 44 42 35 37 17 52 79 53 22 40 46 42 56 65 54 14 9 8 10 12 9 11 30 28 35 20 26 49 35 56 61 65 60 47 46 52 48
36 38 33 27 32 36 31 15 7 22 5 13 10 32 58 11 21 35 26 27 43 25 14 11 14 26 11 7 11 32 35 43 59 57 71 75 86 79 67 62 61 48 34 45
33 41 34 32 32 31 25 16 10 4 25 13 17 16 21 40 25 17 18 23 30 30 11 12 11 23 18 6 21 61 57 59 60 64 56 62 83 50 46 51 58 51 35 44
32 36 34 34 32 38 43 36 25 22 26 12 7 10 17 18 6 8 8 19 14 16 10 7 9 11 15 10 18 34 47 51 49 29 29 50 64 51 62 49 52 56 54 57
30 31 38 33 20 14 10 15 14 15 19 7 11 6 8 22 20 19 15 6 3 9 6 8 7 6 9 10 34 50 56 39 45 48 38 46 53 38 45 29 25 37 37 50
25 31 7 8 7 3 19 8 5 13 15 15 11 14 12 30 23 8 10 7 4 5 9 6 6 7 19 35 49 60 62 51 53 43 32 24 16 11 8 9 22 16 23 19
10 6 5 7 9 6 5 7 10 14 9 15 19 24 15 13 5 4 6 5 6 6 2 4 5 5 10 62 68 59 46 31 38 27 29 21 15 14 15 21 17 20 23 17
9 16 15 8 5 3 4 6 8 8 7 16 10 15 17 5 3 4 6 5 6 7 2 4 5 8 64 77 74 33 44 40 34 7 8 16 13 18 27 26 24 30 25 14
9 8 6 7 7 5 9 9 8 6 7 11 9 5 8 4 2 4 3 5 9 23 4 6 5 42 70 72 47 51 46 46 47 41 25 1 6 9 5 8 9 8 13 26
8 7 6 8 10 11 10 11 9 17 10 19 16 3 4 2 2 3 6 6 5 6 9 8 9 59 68 43 45 46 50 52 54 58 58 56 55 57 51 50 48 54 60 57
9 9 7 13 27 27 31 36 20 18 23 19 6 5 3 3 4 3 6 7 6 7 6 5 43 66 51 45 40 43 46 49 52 52 56 55 51 50 49 45 41 42 47 46
9 13 11 26 21 16 36 13 18 23 26 13 6 3 1 3 3 3 7 10 8 7 6 40 49 46 42 44 43 43 43 39 43 46 47 46 47 43 39 35 38 41 36 31
9 12 27 39 39 32 26 9 12 19 12 4 4 6 6 6 3 3 3 4 4 27 39 34 29 30 27 29 38 45 46 48 39 34 33 39 39 37 39 42 35 28 27 31
Wind_Direction_850mb
354 359 0 1 355 358 6 8 337 354 337 37 3 27 3 330 30 36 13 25 10 12 334 316 326 322 1 22 10 4 7 280 272 266 293 303 305 286 349 215 255 204 194 249
353 355 0 3 5 356 351 342 299 357 26 43 5 355 342 0 23 20 22 8 12 352 345 336 355 348 335 6 8 19 354 332 329 330 331 326 298 49 28 123 12 297 177 257
351 353 357 0 9 5 3 341 329 352 355 18 13 341 325 321 29 22 12 359 344 352 352 344 322 332 351 347 344 7 4 314 328 304 316 322 312 317 345 122 143 294 271 315
348 351 353 358 4 14 12 8 14 19 321 331 315 299 296 348 0 9 358 348 344 359 339 319 320 329 331 329 327 1 76 287 317 324 323 318 306 305 315 300 251 166 274 293
344 347 350 354 359 15 44 25 352 326 302 316 294 296 31 1 346 341 307 304 333 323 296 281 312 326 324 312 314 309 283 262 301 301 310 308 306 304 283 283 293 297 231 269
338 342 346 349 356 10 28 6 348 324 295 305 314 2 352 324 302 297 339 338 318 294 287 328 329 315 297 280 261 265 272 268 275 276 291 306 303 281 301 297 290 302 281 276
332 334 338 343 346 358 351 339 341 324 289 322 309 327 307 342 335 310 299 287 269 343 344 325 306 287 281 280 276 261 264 257 261 268 274 268 259 267 282 286 284 285 292 298
325 327 330 333 333 336 331 13 329 294 280 299 297 332 335 315 292 294 320 330 2 342 331 314 304 300 285 263 267 258 235 251 250 251 256 272 272 268 281 290 286 304 316 315
319 320 321 323 324 333 316 314 274 307 300 254 271 315 298 296 331 315 311 319 325 334 320 309 258 243 294 275 300 313 300 220 248 258 254 255 253 250 251 265 273 280 292 327
313 314 313 314 313 313 311 305 305 294 274 277 276 273 295 304 297 279 292 306 327 310 227 246 261 259 256 260 262 296 295 303 220 234 239 261 253 267 299 261 256 326 350 330
309 308 308 308 308 302 299 293 285 284 287 281 279 272 277 278 274 278 291 326 288 252 230 226 235 241 233 260 263 304 317 312 265 262 224 263 243 241 206 173 295 337 334 304
306 305 305 300 304 308 299 290 302 279 281 270 276 271 260 271 269 268 272 250 271 278 279 266 305 281 310 275 280 270 249 215 235 265 245 307 305 300 262 232 258 253 250 281
307 307 302 293 294 301 296 290 295 290 287 294 280 273 286 276 265 267 253 258 258 260 258 246 236 247 203 243 245 260 245 246 243 257 252 256 287 288 291 286 255 256 256 257
318 314 305 296 291 298 296 288 289 275 282 280 293 299 285 274 262 261 256 265 269 262 266 241 233 248 215 233 257 255 249 270 251 257 263 269 264 262 268 270 269 268 232 237
313 312 306 303 299 301 297 292 291 271 252 283 294 300 313 311 278 269 270 260 256 255 229 212 231 235 254 223 241 254 241 247 245 254 259 256 264 263 267 273 272 263 244 237
304 307 299 293 302 303 312 322 185 106 247 277 303 292 304 298 314 274 280 261 257 217 196 221 224 237 238 242 258 266 257 255 246 248 260 259 268 263 263 264 267 260 238 255
302 309 301 297 296 286 265 241 230 38 338 313 301 289 285 301 296 266 251 266 266 245 223 224 237 254 235 231 256 275 292 283 277 270 262 253 255 256 265 251 242 241 254 238
296 302 297 296 288 279 281 291 281 262 271 254 263 277 280 300 332 339 294 271 251 215 224 259 245 263 207 253 270 318 312 311 308 298 313 302 276 287 261 244 242 252 260 241
305 297 300 295 263 248 276 312 270 243 226 238 237 261 293 329 0 332 303 334 233 219 225 231 218 230 234 298 311 296 293 287 283 289 285 287 283 279 249 231 253 267 271 243
301 302 280 246 218 252 287 301 212 207 219 228 255 261 266 291 306 283 298 292 262 258 226 234 231 252 276 277 299 290 285 283 284 268 259 288 327 228 117 211 238 256 246 258
286 255 257 327 325 317 236 251 204 198 233 219 239 233 252 278 253 280 295 314 274 276 38 285 279 279 292 321 326 352 10 331 294 276 255 256 264 281 296 294 276 270 282 252
249 298 315 297 226 266 295 244 239 222 257 190 230 236 222 244 271 314 301 280 306 273 1 274 276 331 327 333 345 343 21 25 33 353 289 213 222 277 301 301 279 274 239 234
247 242 247 206 183 235 224 220 199 239 231 278 21 31 8 49 345 269 279 272 241 322 274 313 348 321 332 343 10 28 36 45 55 53 40 40 72 56 32 71 103 108 155 182
230 229 225 226 193 232 218 257 317 257 16 3 11 104 93 238 248 275 264 268 309 326 340 349 337 325 339 8 25 38 40 55 61 64 76 86 85 89 94 96 103 108 107 107
238 220 233 233 240 268 316 305 272 21 2 357 355 27 155 192 266 241 288 316 353 22 333 307 317 333 346 16 36 48 56 63 71 74 76 83 86 79 89 88 87 103 104 107
240 231 252 274 278 280 254 327 37 17 3 6 8 268 52 253 237 355 25 330 1 322 296 311 334 351 18 40 49 54 63 68 72 82 83 80 75 76 81 89 89 97 99 104
239 248 251 254 271 290 305 57 29 2 21 41 348 340 2 291 7 60 43 344 278 300 329 348 347 0 23 31 57 66 64 65 70 73 80 75 72 73 76 78 95 99 91 97